TimeEST,TemperatureF,Dew PointF,Humidity,Sea Level PressureIn,VisibilityMPH,Wind Direction,Wind SpeedMPH,Gust SpeedMPH,PrecipitationIn,Events,Conditions,WindDirDegrees,DateUTC
12:15 AM,48.2,41.0,76,30.30,10.0,ENE,8.1,-,N/A,,Scattered Clouds,70,2013-02-07 05:15:00
12:35 AM,48.2,40.8,76,30.30,10.0,East,8.1,-,N/A,,Clear,80,2013-02-07 05:35:00
12:55 AM,48.6,40.1,73,30.30,10.0,East,9.2,-,N/A,,Clear,80,2013-02-07 05:55:00
1:15 AM,48.2,40.3,74,30.31,10.0,East,9.2,-,N/A,,Clear,80,2013-02-07 06:15:00
1:55 AM,48.2,40.3,74,30.33,10.0,East,10.4,-,N/A,,Clear,80,2013-02-07 06:55:00
2:15 AM,48.0,40.1,74,30.32,10.0,East,8.1,-,N/A,,Clear,80,2013-02-07 07:15:00
2:35 AM,48.2,40.1,74,30.31,10.0,East,9.2,-,N/A,,Clear,90,2013-02-07 07:35:00
2:55 AM,48.2,40.1,74,30.30,10.0,ENE,10.4,-,N/A,,Clear,70,2013-02-07 07:55:00
3:15 AM,47.8,40.1,75,30.30,10.0,East,10.4,-,N/A,,Clear,80,2013-02-07 08:15:00
3:35 AM,47.7,40.1,75,30.29,10.0,ENE,10.4,16.1,N/A,,Clear,70,2013-02-07 08:35:00
3:55 AM,48.0,39.9,74,30.30,10.0,ENE,11.5,-,N/A,,Clear,60,2013-02-07 08:55:00
4:15 AM,48.0,40.3,75,30.30,10.0,ENE,11.5,-,N/A,,Clear,70,2013-02-07 09:15:00
4:35 AM,48.4,40.1,73,30.31,10.0,East,10.4,-,N/A,,Clear,80,2013-02-07 09:35:00
4:55 AM,48.2,39.6,72,30.30,10.0,ENE,11.5,-,N/A,,Clear,70,2013-02-07 09:55:00
5:15 AM,48.2,40.1,74,30.31,10.0,ENE,11.5,-,N/A,,Clear,70,2013-02-07 10:15:00
5:35 AM,48.2,39.9,73,30.32,10.0,ENE,9.2,-,N/A,,Clear,70,2013-02-07 10:35:00
5:55 AM,48.2,40.3,74,30.32,10.0,ENE,10.4,-,N/A,,Clear,70,2013-02-07 10:55:00
6:15 AM,48.4,40.3,74,30.32,10.0,ENE,11.5,-,N/A,,Clear,60,2013-02-07 11:15:00
6:55 AM,48.6,40.3,73,30.32,10.0,ENE,11.5,-,N/A,,Clear,70,2013-02-07 11:55:00
7:15 AM,48.7,40.6,74,30.32,10.0,East,12.7,-,N/A,,Clear,80,2013-02-07 12:15:00
7:35 AM,49.3,41.0,73,30.33,10.0,East,11.5,16.1,N/A,,Clear,80,2013-02-07 12:35:00
7:55 AM,50.2,41.0,71,30.33,10.0,East,13.8,18.4,N/A,,Clear,80,2013-02-07 12:55:00
8:15 AM,50.9,41.4,70,30.34,10.0,ENE,12.7,-,N/A,,Clear,70,2013-02-07 13:15:00
8:35 AM,51.3,41.2,68,30.34,10.0,ENE,15.0,18.4,N/A,,Clear,70,2013-02-07 13:35:00
8:55 AM,51.8,41.4,68,30.34,10.0,ENE,13.8,18.4,N/A,,Clear,70,2013-02-07 13:55:00
9:15 AM,52.3,41.9,68,30.34,10.0,ENE,16.1,-,N/A,,Clear,70,2013-02-07 14:15:00
9:35 AM,52.9,41.2,64,30.34,10.0,East,13.8,21.9,N/A,,Clear,80,2013-02-07 14:35:00
9:55 AM,53.6,41.9,65,30.34,10.0,East,15.0,23.0,N/A,,Clear,80,2013-02-07 14:55:00
10:15 AM,53.6,41.7,64,30.34,10.0,ENE,16.1,21.9,N/A,,Clear,70,2013-02-07 15:15:00
10:35 AM,54.1,41.9,63,30.35,10.0,ENE,15.0,-,N/A,,Clear,70,2013-02-07 15:35:00
10:55 AM,54.3,41.9,63,30.35,10.0,ENE,16.1,20.7,N/A,,Clear,70,2013-02-07 15:55:00
11:15 AM,54.0,42.4,65,30.35,10.0,ENE,16.1,21.9,N/A,,Clear,70,2013-02-07 16:15:00
11:35 AM,55.0,43.0,64,30.33,10.0,ENE,16.1,21.9,N/A,,Clear,70,2013-02-07 16:35:00
11:55 AM,54.9,43.2,65,30.32,10.0,ENE,18.4,25.3,N/A,,Clear,70,2013-02-07 16:55:00
12:15 PM,55.6,42.4,61,30.30,10.0,ENE,16.1,-,N/A,,Clear,70,2013-02-07 17:15:00
12:35 PM,56.3,42.3,59,30.30,10.0,ENE,15.0,24.2,N/A,,Clear,70,2013-02-07 17:35:00
12:55 PM,56.5,43.0,61,30.29,10.0,ENE,18.4,24.2,N/A,,Clear,70,2013-02-07 17:55:00
1:15 PM,55.4,43.3,64,30.28,10.0,ENE,17.3,24.2,N/A,,Clear,70,2013-02-07 18:15:00
1:35 PM,54.9,43.3,65,30.27,10.0,ENE,18.4,23.0,N/A,,Scattered Clouds,70,2013-02-07 18:35:00
1:55 PM,54.9,43.0,64,30.27,10.0,East,17.3,21.9,N/A,,Mostly Cloudy,80,2013-02-07 18:55:00
2:15 PM,54.1,42.3,64,30.26,10.0,East,17.3,23.0,N/A,,Mostly Cloudy,80,2013-02-07 19:15:00
2:35 PM,54.0,42.8,66,30.25,10.0,East,16.1,21.9,N/A,,Mostly Cloudy,80,2013-02-07 19:35:00
2:55 PM,53.8,42.8,66,30.24,10.0,ENE,16.1,23.0,N/A,,Overcast,70,2013-02-07 19:55:00
3:15 PM,53.6,43.2,68,30.25,10.0,ENE,17.3,21.9,N/A,,Overcast,70,2013-02-07 20:15:00
3:35 PM,53.2,42.8,68,30.24,10.0,ENE,16.1,21.9,N/A,,Mostly Cloudy,70,2013-02-07 20:35:00
3:55 PM,53.1,43.5,70,30.23,10.0,ENE,17.3,-,N/A,,Scattered Clouds,70,2013-02-07 20:55:00
4:15 PM,52.9,43.7,71,30.23,10.0,ENE,16.1,25.3,N/A,,Clear,70,2013-02-07 21:15:00
4:35 PM,52.9,44.2,72,30.23,10.0,East,16.1,21.9,N/A,,Scattered Clouds,80,2013-02-07 21:35:00
4:55 PM,53.1,44.6,73,30.22,10.0,ENE,16.1,21.9,N/A,,Mostly Cloudy,70,2013-02-07 21:55:00
5:15 PM,53.2,44.8,73,30.22,10.0,ENE,15.0,19.6,N/A,,Mostly Cloudy,70,2013-02-07 22:15:00
5:35 PM,53.8,45.0,72,30.21,10.0,ENE,17.3,21.9,N/A,,Scattered Clouds,70,2013-02-07 22:35:00
5:55 PM,53.6,45.5,74,30.20,10.0,East,16.1,23.0,N/A,,Clear,80,2013-02-07 22:55:00
6:15 PM,54.1,45.7,73,30.20,10.0,East,13.8,20.7,N/A,,Clear,80,2013-02-07 23:15:00
6:35 PM,54.7,45.9,72,30.20,10.0,East,13.8,-,N/A,,Scattered Clouds,80,2013-02-07 23:35:00
6:55 PM,54.9,46.0,72,30.19,10.0,ENE,12.7,18.4,N/A,,Mostly Cloudy,70,2013-02-07 23:55:00
7:15 PM,55.0,46.4,73,30.19,10.0,ENE,12.7,-,N/A,,Overcast,70,2013-02-08 00:15:00
7:35 PM,55.4,46.6,72,30.19,10.0,ENE,13.8,19.6,N/A,,Overcast,70,2013-02-08 00:35:00
7:55 PM,55.4,46.8,73,30.18,10.0,ENE,12.7,19.6,N/A,,Overcast,70,2013-02-08 00:55:00
8:15 PM,55.6,46.6,72,30.16,10.0,East,13.8,-,N/A,,Overcast,80,2013-02-08 01:15:00
8:35 PM,56.3,46.6,70,30.16,10.0,East,15.0,20.7,N/A,,Overcast,80,2013-02-08 01:35:00
8:55 PM,56.3,46.6,70,30.14,10.0,East,12.7,-,N/A,,Overcast,80,2013-02-08 01:55:00
9:15 PM,56.7,47.3,71,30.13,10.0,East,11.5,-,N/A,,Overcast,80,2013-02-08 02:15:00
9:35 PM,57.2,47.5,70,30.12,10.0,East,13.8,17.3,N/A,,Overcast,80,2013-02-08 02:35:00
9:55 PM,57.7,47.7,69,30.12,10.0,East,12.7,18.4,N/A,,Overcast,100,2013-02-08 02:55:00
10:15 PM,57.7,46.8,67,30.11,10.0,East,12.7,18.4,N/A,,Overcast,100,2013-02-08 03:15:00
10:35 PM,58.1,46.0,64,30.09,10.0,East,15.0,20.7,N/A,,Overcast,100,2013-02-08 03:35:00
10:55 PM,57.6,46.0,65,30.08,10.0,ESE,15.0,21.9,N/A,,Light Drizzle,110,2013-02-08 03:55:00
11:15 PM,58.1,46.4,65,30.05,10.0,East,16.1,21.9,N/A,,Overcast,100,2013-02-08 04:15:00
11:35 PM,58.1,46.0,64,30.05,10.0,East,12.7,21.9,N/A,,Overcast,100,2013-02-08 04:35:00
11:55 PM,57.7,46.4,66,30.04,10.0,ESE,16.1,23.0,N/A,,Light Drizzle,110,2013-02-08 04:55:00